LXJ395 KCLT-KDCA

Flight info

Callsign LXJ395
Flight time 0h 50m
Altitude 41000
Route KILNS5 AUDII WAVES CAPSS4
Aircraft C750/M-SBDE3FGHRWXY/S

Departure

Time 2026-04-26 11:52
Airport Charlotte Douglas International Airport (KCLT)

Arrival

Time 2026-04-26 12:42
Airport Ronald Reagan Washington National Airport (KDCA)
Time Latitude Longitude Altitude Speed Heading
2026-04-26 11:36 35.21041 -80.93266 715 ft 0 kts 86°
2026-04-26 11:42 35.21042 -80.93253 715 ft 0 kts 85°
2026-04-26 11:47 35.21044 -80.93243 715 ft 3 kts 56°
2026-04-26 11:47 35.21073 -80.93232 715 ft 4 kts 356°
2026-04-26 11:47 35.21102 -80.93234 715 ft 3 kts 355°
2026-04-26 11:47 35.21124 -80.93254 717 ft 7 kts 283°
2026-04-26 11:48 35.21122 -80.93333 720 ft 8 kts 263°
2026-04-26 11:48 35.21077 -80.93363 719 ft 8 kts 175°
2026-04-26 11:48 35.21007 -80.93356 718 ft 11 kts 175°
2026-04-26 11:48 35.20921 -80.93349 716 ft 13 kts 176°
2026-04-26 11:49 35.20821 -80.93340 714 ft 15 kts 176°
2026-04-26 11:49 35.20697 -80.93329 708 ft 19 kts 172°
2026-04-26 11:49 35.20556 -80.93291 705 ft 21 kts 167°
2026-04-26 11:49 35.20403 -80.93248 701 ft 23 kts 168°
2026-04-26 11:50 35.20280 -80.93226 698 ft 15 kts 178°
2026-04-26 11:50 35.20172 -80.93218 697 ft 13 kts 176°
2026-04-26 11:50 35.20118 -80.93254 700 ft 1 kts 255°
2026-04-26 11:50 35.20114 -80.93299 702 ft 7 kts 266°
2026-04-26 11:51 35.20112 -80.93368 704 ft 10 kts 278°
2026-04-26 11:51 35.20163 -80.93419 706 ft 9 kts 354°
2026-04-26 11:51 35.20309 -80.93433 708 ft 57 kts 356°
2026-04-26 11:51 35.21146 -80.93513 725 ft 165 kts 354°
2026-04-26 11:52 35.22570 -80.93646 990 ft 230 kts 355°
2026-04-26 11:52 35.24297 -80.93683 2018 ft 232 kts 10°
2026-04-26 11:52 35.25863 -80.93086 2872 ft 235 kts 19°
2026-04-26 11:52 35.27418 -80.92529 4172 ft 229 kts 17°
2026-04-26 11:53 35.28987 -80.91975 5249 ft 231 kts 17°
2026-04-26 11:53 35.30386 -80.90924 6186 ft 237 kts 46°
2026-04-26 11:53 35.31388 -80.89206 7115 ft 245 kts 62°
2026-04-26 11:54 35.32362 -80.84973 8872 ft 259 kts 76°
2026-04-26 11:54 35.32730 -80.82718 9739 ft 264 kts 76°
2026-04-26 11:54 35.33091 -80.80431 10594 ft 268 kts 76°
2026-04-26 11:54 35.33457 -80.78109 11439 ft 281 kts 77°
2026-04-26 11:55 35.33829 -80.75709 12711 ft 288 kts 77°
2026-04-26 11:55 35.34208 -80.73265 14012 ft 293 kts 77°
2026-04-26 11:55 35.34589 -80.70813 15218 ft 298 kts 77°
2026-04-26 11:55 35.34987 -80.68253 16387 ft 303 kts 78°
2026-04-26 11:56 35.35318 -80.66091 17297 ft 309 kts 78°
2026-04-26 11:56 35.35750 -80.63305 18406 ft 316 kts 78°
2026-04-26 11:56 35.36162 -80.60624 19412 ft 323 kts 78°
2026-04-26 11:56 35.36586 -80.57870 20398 ft 330 kts 78°
2026-04-26 11:57 35.37019 -80.55048 21349 ft 337 kts 78°
2026-04-26 11:57 35.37455 -80.52197 22287 ft 343 kts 78°
2026-04-26 11:57 35.37906 -80.49257 23164 ft 350 kts 78°
2026-04-26 11:57 35.38370 -80.46225 24042 ft 353 kts 78°
2026-04-26 11:58 35.38831 -80.43218 24715 ft 356 kts 78°
2026-04-26 11:58 35.39300 -80.40137 25288 ft 362 kts 78°
2026-04-26 11:58 35.39767 -80.37061 25886 ft 366 kts 78°
2026-04-26 11:58 35.40253 -80.33891 26459 ft 371 kts 79°
2026-04-26 11:59 35.40733 -80.30717 27053 ft 374 kts 79°
2026-04-26 11:59 35.41224 -80.27473 27608 ft 378 kts 79°
2026-04-26 11:59 35.41711 -80.24249 28246 ft 379 kts 80°
2026-04-26 11:59 35.42201 -80.20999 28826 ft 382 kts 80°
2026-04-26 12:00 35.42691 -80.17735 29360 ft 385 kts 80°
2026-04-26 12:00 35.43343 -80.14514 29896 ft 389 kts 70°
2026-04-26 12:00 35.44337 -80.11340 30430 ft 391 kts 69°
2026-04-26 12:00 35.45313 -80.08170 30914 ft 394 kts 69°
2026-04-26 12:01 35.46276 -80.05024 31432 ft 395 kts 69°
2026-04-26 12:01 35.47230 -80.01896 31901 ft 397 kts 69°
2026-04-26 12:01 35.48218 -79.98656 32379 ft 399 kts 68°
2026-04-26 12:01 35.49200 -79.95441 32808 ft 402 kts 68°
2026-04-26 12:02 35.50164 -79.92271 33216 ft 405 kts 68°
2026-04-26 12:02 35.51156 -79.89006 33650 ft 407 kts 68°
2026-04-26 12:02 35.52137 -79.85780 34009 ft 411 kts 68°
2026-04-26 12:02 35.53152 -79.82430 34387 ft 415 kts 69°
2026-04-26 12:03 35.53928 -79.79042 34710 ft 419 kts 69°
2026-04-26 12:03 35.55117 -79.75738 35083 ft 421 kts 64°
2026-04-26 12:03 35.56280 -79.72321 35277 ft 424 kts 66°
2026-04-26 12:03 35.57383 -79.68880 35569 ft 428 kts 67°
2026-04-26 12:04 35.58482 -79.65377 35909 ft 430 kts 67°
2026-04-26 12:04 35.59558 -79.61928 36235 ft 434 kts 67°
2026-04-26 12:04 35.60674 -79.58346 36605 ft 437 kts 67°
2026-04-26 12:04 35.61777 -79.54793 36941 ft 442 kts 67°
2026-04-26 12:05 35.62886 -79.51224 37376 ft 445 kts 67°
2026-04-26 12:05 35.64003 -79.47629 37825 ft 448 kts 67°
2026-04-26 12:05 35.65139 -79.43952 38253 ft 451 kts 67°
2026-04-26 12:05 35.66270 -79.40299 38588 ft 454 kts 67°
2026-04-26 12:06 35.67404 -79.36625 38901 ft 458 kts 67°
2026-04-26 12:06 35.68520 -79.33011 39209 ft 461 kts 67°
2026-04-26 12:06 35.69706 -79.29260 39499 ft 462 kts 63°
2026-04-26 12:06 35.71563 -79.25946 39715 ft 457 kts 41°
2026-04-26 12:07 35.74058 -79.23501 40061 ft 452 kts 32°
2026-04-26 12:07 35.76645 -79.21145 40349 ft 455 kts 33°
2026-04-26 12:07 35.79234 -79.18778 40651 ft 456 kts 33°
2026-04-26 12:07 35.81855 -79.16378 40923 ft 458 kts 33°
2026-04-26 12:08 35.84502 -79.13955 40958 ft 463 kts 33°
2026-04-26 12:08 35.89765 -79.09120 40962 ft 468 kts 33°
2026-04-26 12:09 35.95117 -79.04202 40964 ft 473 kts 33°
2026-04-26 12:09 36.00510 -78.99234 40963 ft 477 kts 33°
2026-04-26 12:10 36.05961 -78.94209 40981 ft 481 kts 33°
2026-04-26 12:10 36.11385 -78.89193 40980 ft 484 kts 33°
2026-04-26 12:11 36.15740 -78.85165 40992 ft 487 kts 33°
2026-04-26 12:11 36.21262 -78.80173 40972 ft 488 kts 27°
2026-04-26 12:11 36.23974 -78.77827 40969 ft 494 kts 39°
2026-04-26 12:12 36.24534 -78.77194 40993 ft 494 kts 39°
2026-04-26 12:12 36.32376 -78.69315 41007 ft 496 kts 34°
2026-04-26 12:13 36.37855 -78.64017 40992 ft 499 kts 34°
2026-04-26 12:13 36.43403 -78.58655 41004 ft 501 kts 34°
2026-04-26 12:14 36.48982 -78.53249 41008 ft 503 kts 34°
2026-04-26 12:15 36.59351 -78.43171 41017 ft 507 kts 34°
2026-04-26 12:15 36.64572 -78.38084 41017 ft 509 kts 34°
2026-04-26 12:16 36.70242 -78.32549 41020 ft 510 kts 35°
2026-04-26 12:16 36.75855 -78.27060 40997 ft 509 kts 35°
2026-04-26 12:16 36.78706 -78.24271 40439 ft 515 kts 35°
2026-04-26 12:17 36.81544 -78.21493 39559 ft 515 kts 36°
2026-04-26 12:17 36.84375 -78.18714 38690 ft 512 kts 36°
2026-04-26 12:17 36.87087 -78.16052 37828 ft 509 kts 36°
2026-04-26 12:17 36.89825 -78.13364 36955 ft 507 kts 36°
2026-04-26 12:18 36.92582 -78.10648 36060 ft 503 kts 37°
2026-04-26 12:18 36.95349 -78.07922 35390 ft 497 kts 37°
2026-04-26 12:18 36.98076 -78.05235 34707 ft 492 kts 37°
2026-04-26 12:18 37.00838 -78.02509 33934 ft 487 kts 37°
2026-04-26 12:19 37.03544 -77.99824 33108 ft 482 kts 37°
2026-04-26 12:19 37.06221 -77.97182 32291 ft 477 kts 37°
2026-04-26 12:19 37.08888 -77.94540 31463 ft 472 kts 37°
2026-04-26 12:19 37.11503 -77.91949 30560 ft 469 kts 37°
2026-04-26 12:20 37.13989 -77.89487 29583 ft 464 kts 37°
2026-04-26 12:20 37.16548 -77.86947 28574 ft 459 kts 36°
2026-04-26 12:20 37.19048 -77.84460 27593 ft 451 kts 36°
2026-04-26 12:20 37.21496 -77.82026 26755 ft 440 kts 36°
2026-04-26 12:21 37.23843 -77.79691 25965 ft 428 kts 36°
2026-04-26 12:21 37.26143 -77.77400 25168 ft 418 kts 36°
2026-04-26 12:21 37.28425 -77.75131 24382 ft 409 kts 36°
2026-04-26 12:21 37.30681 -77.72880 23722 ft 398 kts 36°
2026-04-26 12:22 37.32904 -77.70661 23212 ft 392 kts 35°
2026-04-26 12:22 37.35075 -77.68494 22954 ft 384 kts 35°
2026-04-26 12:22 37.37232 -77.66343 22906 ft 392 kts 36°
2026-04-26 12:22 37.39482 -77.64095 22789 ft 398 kts 35°
2026-04-26 12:23 37.41684 -77.61890 22674 ft 401 kts 35°
2026-04-26 12:23 37.43959 -77.59609 22558 ft 403 kts 36°
2026-04-26 12:23 37.46221 -77.57340 22450 ft 405 kts 36°
2026-04-26 12:23 37.48473 -77.55083 22329 ft 403 kts 36°
2026-04-26 12:24 37.50712 -77.52831 22209 ft 398 kts 35°
2026-04-26 12:24 37.52917 -77.50616 21975 ft 389 kts 36°
2026-04-26 12:24 37.55038 -77.48482 21712 ft 382 kts 36°
2026-04-26 12:25 37.58796 -77.44912 21217 ft 377 kts 24°
2026-04-26 12:25 37.61826 -77.43799 20807 ft 371 kts
2026-04-26 12:25 37.64386 -77.43020 20448 ft 369 kts 11°
2026-04-26 12:25 37.66748 -77.42309 20103 ft 366 kts 11°
2026-04-26 12:26 37.69316 -77.41518 19722 ft 364 kts 11°
2026-04-26 12:26 37.71843 -77.40741 19350 ft 362 kts 11°
2026-04-26 12:26 37.74227 -77.40007 18997 ft 359 kts 12°
2026-04-26 12:26 37.76683 -77.39250 18629 ft 355 kts 12°
2026-04-26 12:27 37.79108 -77.38499 18249 ft 351 kts 12°
2026-04-26 12:27 37.81555 -77.37740 17866 ft 348 kts 12°
2026-04-26 12:27 37.83955 -77.37000 17489 ft 345 kts 12°
2026-04-26 12:27 37.86353 -77.36259 17097 ft 340 kts 12°
2026-04-26 12:28 37.88686 -77.35535 16714 ft 335 kts 12°
2026-04-26 12:28 37.91003 -77.34822 16330 ft 330 kts 13°
2026-04-26 12:28 37.93285 -77.34122 15949 ft 326 kts 14°
2026-04-26 12:28 37.95533 -77.33430 15556 ft 321 kts 14°
2026-04-26 12:29 37.97776 -77.32735 15164 ft 317 kts 14°
2026-04-26 12:29 37.99596 -77.32175 14843 ft 315 kts 14°
2026-04-26 12:29 38.04101 -77.30787 14040 ft 308 kts 14°
2026-04-26 12:30 38.06211 -77.30136 13701 ft 304 kts 14°
2026-04-26 12:30 38.08344 -77.29466 13451 ft 308 kts 14°
2026-04-26 12:30 38.10503 -77.28789 13082 ft 308 kts 14°
2026-04-26 12:31 38.14671 -77.27481 12316 ft 296 kts 14°
2026-04-26 12:31 38.16736 -77.26833 11930 ft 293 kts 14°
2026-04-26 12:31 38.18796 -77.26184 11549 ft 292 kts 14°
2026-04-26 12:31 38.20790 -77.25555 11180 ft 291 kts 14°
2026-04-26 12:32 38.22825 -77.24908 10735 ft 291 kts 14°
2026-04-26 12:32 38.24777 -77.24287 10219 ft 277 kts 14°
2026-04-26 12:32 38.28380 -77.23141 9218 ft 263 kts 14°
2026-04-26 12:33 38.30139 -77.22581 8977 ft 252 kts 14°
2026-04-26 12:33 38.31512 -77.22146 8960 ft 247 kts 14°
2026-04-26 12:33 38.33296 -77.21551 8963 ft 252 kts 19°
2026-04-26 12:33 38.34872 -77.20205 8621 ft 263 kts 41°
2026-04-26 12:34 38.35627 -77.19296 8417 ft 262 kts 40°
2026-04-26 12:34 38.37501 -77.17180 7908 ft 263 kts 39°
2026-04-26 12:34 38.38891 -77.15605 7527 ft 263 kts 39°
2026-04-26 12:34 38.40286 -77.14028 7150 ft 265 kts 39°
2026-04-26 12:35 38.41730 -77.12399 6755 ft 267 kts 39°
2026-04-26 12:35 38.43114 -77.10836 6510 ft 263 kts 39°
2026-04-26 12:35 38.44467 -77.09310 6258 ft 260 kts 39°
2026-04-26 12:35 38.45869 -77.07726 5990 ft 258 kts 40°
2026-04-26 12:36 38.47265 -77.06148 5724 ft 255 kts 40°
2026-04-26 12:36 38.48634 -77.04598 5461 ft 253 kts 40°
2026-04-26 12:36 38.49974 -77.03083 5200 ft 251 kts 40°
2026-04-26 12:36 38.51349 -77.01583 4926 ft 248 kts 33°
2026-04-26 12:37 38.53046 -77.00990 4650 ft 245 kts 359°
2026-04-26 12:37 38.54783 -77.01155 4413 ft 244 kts 359°
2026-04-26 12:37 38.56563 -77.01262 4156 ft 246 kts 358°
2026-04-26 12:37 38.58321 -77.01386 3894 ft 245 kts 359°
2026-04-26 12:38 38.60079 -77.01507 3627 ft 243 kts 359°
2026-04-26 12:38 38.61868 -77.01630 3355 ft 242 kts 359°
2026-04-26 12:38 38.63591 -77.01749 3092 ft 241 kts 359°
2026-04-26 12:38 38.65335 -77.01870 2968 ft 230 kts 359°
2026-04-26 12:39 38.66959 -77.01984 2957 ft 222 kts 359°
2026-04-26 12:39 38.68547 -77.02097 2959 ft 215 kts 359°
2026-04-26 12:39 38.70067 -77.02242 2947 ft 210 kts 358°
2026-04-26 12:39 38.71567 -77.02393 2908 ft 207 kts 358°
2026-04-26 12:40 38.73034 -77.02543 2820 ft 203 kts 359°
2026-04-26 12:40 38.74470 -77.02692 2711 ft 202 kts 359°
2026-04-26 12:40 38.75897 -77.02837 2294 ft 210 kts 358°
2026-04-26 12:40 38.77394 -77.02992 1860 ft 216 kts 358°
2026-04-26 12:41 38.78904 -77.03144 1433 ft 219 kts 358°
2026-04-26 12:41 38.80319 -77.03311 1038 ft 177 kts 356°
2026-04-26 12:41 38.81450 -77.03455 471 ft 169 kts 357°
2026-04-26 12:41 38.82542 -77.03530 300 ft 152 kts 358°
2026-04-26 12:42 38.83597 -77.03621 112 ft 148 kts 356°
2026-04-26 12:42 38.84584 -77.03717 14 ft 129 kts 356°
2026-04-26 12:42 38.85000 -77.03758 13 ft 98 kts 352°
2026-04-26 12:42 38.85530 -77.03896 13 ft 5 kts 313°
2026-04-26 12:43 38.85544 -77.03915 14 ft 0 kts 311°
2026-04-26 12:43 38.85544 -77.03916 14 ft 0 kts 311°
2026-04-26 12:43 38.85551 -77.03928 14 ft 4 kts 302°
2026-04-26 12:43 38.85558 -77.03985 15 ft 8 kts 266°
2026-04-26 12:44 38.85505 -77.04015 16 ft 10 kts 167°
2026-04-26 12:44 38.85424 -77.04004 16 ft 12 kts 179°
2026-04-26 12:44 38.85365 -77.03999 16 ft 13 kts 175°
2026-04-26 12:45 38.85232 -77.03985 16 ft 15 kts 175°
2026-04-26 12:45 38.85129 -77.03974 16 ft 8 kts 175°
2026-04-26 12:45 38.85013 -77.03963 15 ft 15 kts 176°
2026-04-26 12:45 38.84875 -77.03950 15 ft 17 kts 176°
2026-04-26 12:46 38.84767 -77.03958 15 ft 18 kts 202°
2026-04-26 12:46 38.84681 -77.04008 13 ft 12 kts 205°
2026-04-26 12:46 38.84604 -77.04073 14 ft 13 kts 238°
2026-04-26 12:46 38.84576 -77.04192 14 ft 14 kts 259°
2026-04-26 12:47 38.84572 -77.04330 14 ft 15 kts 298°
2026-04-26 12:47 38.84645 -77.04430 18 ft 13 kts 283°
2026-04-26 12:47 38.84602 -77.04529 17 ft 12 kts 231°
2026-04-26 12:47 38.84563 -77.04591 15 ft 5 kts 232°
2026-04-26 12:48 38.84525 -77.04622 14 ft 8 kts 156°
2026-04-26 12:48 38.84490 -77.04559 13 ft 6 kts 82°
2026-04-26 12:48 38.84496 -77.04543 13 ft 3 kts 36°
2026-04-26 12:48 38.84515 -77.04547 13 ft 1 kts 324°
2026-04-26 12:49 38.84525 -77.04557 14 ft 3 kts 322°
2026-04-26 12:49 38.84536 -77.04568 14 ft 0 kts 322°